Location: Unspecified
(42.0334°N, 93.6656°W)
Time: 09:44:59
(UTC-05:00)

Amateur Radio Satellites - All Passes

Search period start: 26 September 2017 09:14
Search period end: 27 September 2017 09:14
Location: Unspecified, 42.0334°N, 93.6656°W

Satellite Date Start Highest point End Downlink Frequencies (MHz)
Time Altitude Azimuth
AAUSAT CUBESAT 2 26 Sep 09:18:10 09:22:17 81° 101° (E) 09:26:23 437.432
TIGRISAT 26 Sep 09:24:34 09:27:54 22° 66° (ENE) 09:31:19 435.000
HO-68 26 Sep 09:27:44 09:34:37 51° 293° (WNW) 09:41:30 435.675
Oscar 11 26 Sep 09:34:31 09:38:42 44° 98° (E) 09:42:49 .
AO-73 26 Sep 09:38:46 09:43:21 73° 101° (E) 09:47:52 145.935
CUTE 1.7 + AOD 2 26 Sep 09:39:25 09:42:16 18° 295° (WNW) 09:45:07 437.475
ZACube-1 26 Sep 09:43:27 09:48:04 89° 284° (WNW) 09:52:37 437.345
FO-29 26 Sep 09:55:13 10:00:45 58° 259° (WSW) 10:05:55 435.910
EO-88 26 Sep 10:07:37 10:08:22 10° 90° (E) 10:09:06 145.990 - 145.960
DELFI C3 26 Sep 10:19:22 10:22:50 29° 96° (E) 10:26:17 145.870
UNISAT 6 26 Sep 10:37:09 10:41:26 59° 260° (W) 10:45:52 437.425
PRISM 26 Sep 10:39:19 10:43:24 81° 76° (ENE) 10:47:30 437.425
RS-15 26 Sep 10:40:03 10:49:26 24° 4° (N) 10:58:33 29.354- 29.394
UWE-3 26 Sep 10:40:24 10:43:04 15° 297° (WNW) 10:45:44 435.000/436.395/437.385
Max Valier Satellite 26 Sep 10:44:56 10:48:32 44° 99° (E) 10:52:05 145.860
EO-79 26 Sep 10:56:14 10:57:05 11° 61° (ENE) 10:57:56 145.935-145.965
O/OREOS (USA 219) 26 Sep 11:00:04 11:03:06 17° 53° (NE) 11:06:08 437.305
TIGRISAT 26 Sep 11:00:21 11:04:21 36° 263° (W) 11:08:29 435.000
AIST 2D 26 Sep 11:08:38 11:11:45 30° 72° (ENE) 11:14:55 435.315
QB50P2 26 Sep 11:08:59 11:11:37 16° 64° (ENE) 11:14:17 145.880/145.840
Oscar 11 26 Sep 11:11:35 11:14:29 18° 295° (WNW) 11:17:21 .
AO-73 26 Sep 11:16:59 11:18:56 13° 299° (WNW) 11:20:53 145.935
HO-68 26 Sep 11:20:02 11:20:41 10° 314° (NW) 11:21:21 435.675
ZACube-1 26 Sep 11:23:00 11:23:34 10° 300° (WNW) 11:24:09 437.345
NO-84 26 Sep 11:32:56 11:35:31 17° 127° (SE) 11:38:00 435.350 FM
EO-88 26 Sep 11:38:45 11:42:18 49° 287° (WNW) 11:45:49 145.990 - 145.960
NANOSAT C BR1 26 Sep 11:40:07 11:43:42 28° 68° (ENE) 11:47:17 145.865
YUBILEINY 26 Sep 11:45:26 11:53:00 35° 85° (E) 12:00:34 435.215
DELFI C3 26 Sep 11:54:29 11:57:24 20° 292° (WNW) 12:00:20 145.870
M-CUBED/EXP-1 PRIME 26 Sep 11:58:31 12:01:38 21° 63° (ENE) 12:04:34 437.505
DUCHIFAT 1 26 Sep 12:06:17 12:10:17 46° 72° (ENE) 12:14:20 145.980
ESTCUBE 1 26 Sep 12:10:32 12:14:31 31° 96° (E) 12:18:28 437.505/2401.250
Max Valier Satellite 26 Sep 12:20:07 12:21:58 13° 295° (WNW) 12:23:48 145.860
POLYITAN 1 26 Sep 12:24:35 12:28:48 84° 256° (WSW) 12:33:05 437.675
LO-87 26 Sep 12:24:48 12:28:25 72° 101° (ESE) 12:32:01 145.935 - 145.965
EO-79 26 Sep 12:28:00 12:32:12 77° 259° (WSW) 12:36:27 145.935-145.965
BUGSAT 1 26 Sep 12:30:06 12:33:15 22° 67° (ENE) 12:36:26 437.445
O/OREOS (USA 219) 26 Sep 12:38:22 12:42:53 57° 252° (WSW) 12:47:23 437.305
AIST 2D 26 Sep 12:42:45 12:45:00 16° 267° (W) 12:47:17 435.315
QB50P2 26 Sep 12:42:58 12:47:01 46° 261° (W) 12:51:08 145.880/145.840
RS-15 26 Sep 12:55:08 13:06:27 42° 37° (NE) 13:17:11 29.354- 29.394
Oscar 19 26 Sep 13:03:56 13:08:25 30° 66° (ENE) 13:12:56 437.125/150
SO-50 26 Sep 13:04:02 13:07:25 21° 112° (ESE) 13:10:49 436.795
NO-84 26 Sep 13:08:44 13:12:39 65° 321° (NW) 13:16:16 435.350 FM
Gurwin Techsat 1B 26 Sep 13:14:11 13:18:33 27° 65° (ENE) 13:22:55 435.225
NANOSAT C BR1 26 Sep 13:15:52 13:19:21 25° 265° (W) 13:22:51 145.865
M-CUBED/EXP-1 PRIME 26 Sep 13:32:01 13:35:52 34° 256° (WSW) 13:39:30 437.505
PCSat 26 Sep 13:34:09 13:38:00 20° 106° (ESE) 13:41:52 145.827
SPROUT 26 Sep 13:36:40 13:40:58 67° 102° (ESE) 13:45:14 437.525
YUBILEINY 26 Sep 13:41:02 13:49:26 52° 284° (WNW) 13:57:54 435.215
DUCHIFAT 1 26 Sep 13:43:48 13:46:11 15° 269° (W) 13:48:35 145.980
ESTCUBE 1 26 Sep 13:47:29 13:51:12 26° 293° (WNW) 13:54:53 437.505/2401.250
VELOX 1 26 Sep 14:01:42 14:06:07 87° 105° (ESE) 14:10:30 145.980
BUGSAT 1 26 Sep 14:04:56 14:08:27 29° 264° (W) 14:12:01 437.445
ITAMSAT 1 26 Sep 14:19:30 14:20:44 11° 56° (ENE) 14:21:58 435.822/435.867
AO-7 26 Sep 14:37:53 14:45:19 38° 59° (ENE) 14:52:44 .
Oscar 19 26 Sep 14:42:55 14:47:37 34° 263° (W) 14:52:21 437.125/150
50 SAT 26 Sep 14:43:02 14:46:22 82° 283° (WNW) 14:49:40 437.505
SO-50 26 Sep 14:43:18 14:47:35 44° 309° (NW) 14:51:55 436.795
UKube-1 26 Sep 14:46:39 14:50:45 43° 99° (E) 14:54:51 .
NO-84 26 Sep 14:48:17 14:50:34 15° 339° (NNW) 14:52:45 435.350 FM
Gurwin Techsat 1B 26 Sep 14:53:16 14:58:16 41° 262° (W) 15:03:18 435.225
DX 1 26 Sep 15:00:13 15:04:34 84° 286° (WNW) 15:08:55 434.975-435.025
RS-15 26 Sep 15:08:00 15:19:51 71° 244° (WSW) 15:31:02 29.354- 29.394
SPROUT 26 Sep 15:14:32 15:16:18 12° 298° (WNW) 15:18:04 437.525
PCSat 26 Sep 15:15:35 15:20:55 59° 303° (WNW) 15:26:18 145.827
BEESAT 26 Sep 15:17:05 15:18:44 12° 89° (E) 15:20:24 436.000
MOZHAYETS 4 26 Sep 15:19:36 15:21:37 13° 89° (E) 15:23:36
ITAMSAT 1 26 Sep 15:54:09 15:59:18 78° 74° (ENE) 16:04:30 435.822/435.867
ITUPSAT 1 26 Sep 16:17:52 16:22:33 48° 100° (E) 16:27:11 437.325
UKube-1 26 Sep 16:23:32 16:26:27 18° 296° (WNW) 16:29:21 .
DOVE 4 26 Sep 16:26:21 16:28:22 13° 64° (ENE) 16:30:22 437.250
AO-7 26 Sep 16:29:45 16:37:49 52° 258° (WSW) 16:45:55 .
BEESAT 26 Sep 16:52:13 16:57:02 75° 286° (WNW) 17:01:48 436.000
MOZHAYETS 4 26 Sep 16:54:36 16:59:13 66° 286° (WNW) 17:03:47
PCSat 26 Sep 17:03:18 17:05:30 12° 325° (NW) 17:07:43 145.827
RS-15 26 Sep 17:23:59 17:29:50 15° 265° (W) 17:35:34 29.354- 29.394
LilacSat-2 26 Sep 17:24:58 17:27:11 15° 65° (ENE) 17:29:25 437.200
CUBESAT XI-V 26 Sep 17:29:43 17:34:19 62° 101° (E) 17:38:52 437.345
KAITUO 1B 26 Sep 17:31:14 17:32:39 12° 64° (ENE) 17:34:05 145.475/437.950
ITAMSAT 1 26 Sep 17:37:10 17:39:20 13° 271° (W) 17:41:31 435.822/435.867
Tancredo 1 26 Sep 17:40:41 17:41:05 10° 131° (SE) 17:41:31 437.200
ITUPSAT 1 26 Sep 17:56:33 18:00:00 20° 297° (WNW) 18:03:27 437.325
DOVE 4 26 Sep 18:01:21 18:05:39 57° 260° (W) 18:09:48 437.250
NO-84 26 Sep 18:05:38 18:07:46 16° 22° (NNE) 18:09:48 435.350 FM
CUTE-I 26 Sep 18:06:24 18:11:20 42° 69° (ENE) 18:16:19 437.470
XW-2D 26 Sep 18:06:56 18:10:34 42° 73° (ENE) 18:14:13 145.860 - 145.880
HO-68 26 Sep 18:10:14 18:15:53 26° 58° (ENE) 18:21:34 435.675
XW-2F 26 Sep 18:16:30 18:20:13 50° 73° (ENE) 18:23:57 145.980 - 146.000
XW-2B 26 Sep 18:19:14 18:23:01 57° 75° (ENE) 18:26:49 145.730 - 145.750
KKS-1 26 Sep 18:26:51 18:31:19 83° 106° (ESE) 18:35:46 437.445
NUDT-PHONESAT 26 Sep 18:28:26 18:32:05 53° 74° (ENE) 18:35:46 437.300
XW-2C 26 Sep 18:40:44 18:44:34 74° 258° (WSW) 18:48:27 145.795 - 145.815
STARS 26 Sep 18:41:34 18:45:51 48° 100° (E) 18:50:07 437.465
CUTE 1.7 + AOD 2 26 Sep 18:55:35 18:59:20 31° 70° (ENE) 19:03:07 437.475
LilacSat-2 26 Sep 18:57:24 19:01:06 42° 262° (W) 19:04:48 437.200
KAITUO 1B 26 Sep 19:02:27 19:06:10 53° 260° (W) 19:09:54 145.475/437.950
CUBESAT XI-V 26 Sep 19:08:38 19:11:09 15° 298° (WNW) 19:13:41 437.345
Tancredo 1 26 Sep 19:12:28 19:15:07 66° 328° (NNW) 19:17:46 437.200
BEESAT 3 26 Sep 19:16:57 19:20:51 55° 119° (ESE) 19:24:49 437.485
XW-2A 26 Sep 19:23:19 19:26:00 22° 69° (ENE) 19:28:42 145.665 - 145.685
BEESAT 2 26 Sep 19:33:10 19:36:27 25° 113° (ESE) 19:39:45 435.950
ISS 26 Sep 19:34:51 19:37:36 25° 135° (SE) 19:40:23 437.550
NO-84 26 Sep 19:42:26 19:45:30 75° 223° (SW) 19:48:23 435.350 FM
XW-2D 26 Sep 19:42:56 19:44:56 14° 269° (W) 19:46:56 145.860 - 145.880
CUTE-I 26 Sep 19:47:12 19:51:31 25° 266° (W) 19:55:52 437.470
XW-2F 26 Sep 19:53:17 19:54:37 11° 270° (W) 19:55:56 145.980 - 146.000
SEEDS 26 Sep 19:55:49 20:00:04 89° 79° (ENE) 20:04:20 437.485
HO-68 26 Sep 19:55:58 20:03:03 66° 257° (WSW) 20:10:12 435.675
XW-2B 26 Sep 19:57:14 19:57:32 10° 270° (W) 19:57:50 145.730 - 145.750
UWE-3 26 Sep 19:59:32 20:03:43 49° 72° (ENE) 20:08:03 435.000/436.395/437.385
CUBEBUG 2 26 Sep 19:59:53 20:04:10 87° 77° (ENE) 20:08:38 437.445
NUDT-PHONESAT 26 Sep 20:05:30 20:06:15 10° 270° (W) 20:07:00 437.300
KKS-1 26 Sep 20:06:08 20:07:11 11° 300° (WNW) 20:08:14 437.445
nSIGHT-1 26 Sep 20:06:59 20:10:10 60° 141° (SE) 20:13:21 .
AAUSAT CUBESAT 2 26 Sep 20:08:05 20:12:08 53° 74° (ENE) 20:16:11 437.432
AO-85 26 Sep 20:08:45 20:12:34 58° 120° (ESE) 20:16:27 145.980
STARS 26 Sep 20:18:57 20:21:48 17° 296° (WNW) 20:24:40 437.465
STRAND 1 26 Sep 20:21:59 20:26:56 45° 99° (E) 20:31:51 437.568
Oscar 11 26 Sep 20:29:26 20:33:25 35° 70° (ENE) 20:37:24 .
CUTE 1.7 + AOD 2 26 Sep 20:31:44 20:35:10 23° 266° (W) 20:38:38 437.475
AO-73 26 Sep 20:34:04 20:38:21 57° 74° (ENE) 20:42:45 145.935
ZACube-1 26 Sep 20:39:02 20:43:23 73° 74° (ENE) 20:47:51 437.345
Tancredo 1 26 Sep 20:48:17 20:49:55 15° 345° (NNW) 20:51:33 437.200
BEESAT 3 26 Sep 20:55:57 20:58:44 18° 317° (NW) 21:01:32 437.485
XW-2A 26 Sep 20:56:00 20:58:38 20° 265° (W) 21:01:16 145.665 - 145.685
FO-29 26 Sep 21:03:41 21:07:08 16° 92° (E) 21:10:46 435.910
DELFI C3 26 Sep 21:05:28 21:08:15 19° 67° (ENE) 21:11:02 145.870
BEESAT 2 26 Sep 21:10:25 21:14:03 32° 311° (NW) 21:17:44 435.950
ISS 26 Sep 21:10:50 21:13:57 41° 332° (NNW) 21:17:06 437.550
Max Valier Satellite 26 Sep 21:24:24 21:27:16 21° 68° (ENE) 21:30:09 145.860
SO-50 26 Sep 21:33:49 21:37:38 25° 45° (NE) 21:41:29 436.795
UWE-3 26 Sep 21:37:55 21:40:29 15° 270° (W) 21:43:05 435.000/436.395/437.385
nSIGHT-1 26 Sep 21:43:57 21:46:42 25° 340° (NNW) 21:49:26 .
AAUSAT CUBESAT 2 26 Sep 21:46:00 21:47:53 13° 270° (W) 21:49:47 437.432
AO-85 26 Sep 21:50:53 21:53:21 16° 319° (NW) 21:55:49 145.980
YUBILEINY 26 Sep 21:55:13 22:00:38 17° 60° (ENE) 22:06:01 435.215
STRAND 1 26 Sep 22:01:48 22:05:49 23° 296° (WNW) 22:09:49 437.568
Oscar 11 26 Sep 22:06:20 22:09:37 21° 267° (W) 22:12:56 .
AO-73 26 Sep 22:12:47 22:14:58 13° 271° (W) 22:17:10 145.935
EO-88 26 Sep 22:16:05 22:19:43 69° 76° (ENE) 22:23:23 145.990 - 145.960
ZACube-1 26 Sep 22:19:26 22:20:11 10° 272° (W) 22:20:56 437.345
PCSat 26 Sep 22:20:21 22:24:29 21° 44° (NE) 22:28:35 145.827
Tancredo 1 26 Sep 22:24:11 22:25:10 11° 6° (N) 22:26:09 437.200
UNISAT 6 26 Sep 22:28:19 22:32:25 29° 95° (E) 22:36:29 437.425
DELFI C3 26 Sep 22:39:11 22:42:46 33° 263° (W) 22:46:22 145.870
FO-29 26 Sep 22:47:01 22:52:36 73° 286° (WNW) 22:58:52 435.910
ISS 26 Sep 22:48:53 22:51:05 16° 352° (N) 22:53:17 437.550
TIGRISAT 26 Sep 22:50:40 22:55:12 45° 99° (E) 22:59:41 435.000
Max Valier Satellite 26 Sep 22:57:49 23:00:57 25° 265° (W) 23:04:07 145.860
LO-87 26 Sep 23:01:13 23:04:16 28° 71° (ENE) 23:07:21 145.935 - 145.965
ESTCUBE 1 26 Sep 23:10:16 23:14:13 30° 68° (ENE) 23:18:10 437.505/2401.250
SO-50 26 Sep 23:13:53 23:18:15 44° 243° (WSW) 23:22:40 436.795
nSIGHT-1 26 Sep 23:21:52 23:23:50 15° 360° (N) 23:25:49 .
YUBILEINY 26 Sep 23:50:08 23:58:55 82° 82° (E) 00:07:42 435.215
PRISM 26 Sep 23:55:09 23:59:11 65° 286° (WNW) 00:03:12 437.425
Tancredo 1 26 Sep 23:57:53 00:00:14 26° 25° (NNE) 00:02:34 437.200
PCSat 27 Sep 00:02:59 00:08:23 68° 244° (WSW) 00:13:44 145.827
UNISAT 6 27 Sep 00:04:58 00:09:03 30° 292° (WNW) 00:13:07 437.425
AIST 2D 27 Sep 00:05:52 00:09:05 33° 97° (E) 00:12:17 435.315
POLYITAN 1 27 Sep 00:10:06 00:12:42 16° 92° (E) 00:15:17 437.675
EO-79 27 Sep 00:13:08 00:15:56 17° 92° (E) 00:18:42 145.935-145.965
ISS 27 Sep 00:26:05 00:28:28 18° 12° (NNE) 00:30:53 437.550
QB50P2 27 Sep 00:27:26 00:31:05 26° 95° (E) 00:34:42 145.880/145.840
TIGRISAT 27 Sep 00:28:07 00:31:32 20° 295° (WNW) 00:34:58 435.000
SPROUT 27 Sep 00:29:58 00:34:04 51° 73° (ENE) 00:38:13 437.525
LO-87 27 Sep 00:35:23 00:37:43 17° 267° (W) 00:40:04 145.935 - 145.965
FO-29 27 Sep 00:35:37 00:36:55 11° 303° (WNW) 00:38:15 435.910
ESTCUBE 1 27 Sep 00:47:09 00:50:59 27° 265° (W) 00:54:49 437.505/2401.250
nSIGHT-1 27 Sep 00:58:15 01:01:00 24° 20° (NNE) 01:03:44 .
NANOSAT C BR1 27 Sep 00:58:40 01:02:48 47° 99° (E) 01:06:55 145.865
VELOX 1 27 Sep 00:58:51 01:03:14 80° 75° (ENE) 01:07:39 145.980
50 SAT 27 Sep 01:12:59 01:15:56 30° 71° (ENE) 01:18:53 437.505
O/OREOS (USA 219) 27 Sep 01:13:45 01:16:22 15° 99° (E) 01:18:59 437.305
DUCHIFAT 1 27 Sep 01:24:54 01:29:11 83° 102° (ESE) 01:33:26 145.980
Tancredo 1 27 Sep 01:32:14 01:34:37 29° 222° (SW) 01:37:00 437.200
AIST 2D 27 Sep 01:39:58 01:41:58 15° 293° (WNW) 01:43:57 435.315
UKube-1 27 Sep 01:41:13 01:45:12 38° 70° (ENE) 01:49:12 .
POLYITAN 1 27 Sep 01:44:34 01:48:42 46° 288° (WNW) 01:52:49 437.675
BUGSAT 1 27 Sep 01:45:26 01:49:21 36° 98° (E) 01:53:15 437.445
EO-79 27 Sep 01:47:49 01:51:52 43° 289° (WNW) 01:55:55 145.935-145.965
YUBILEINY 27 Sep 01:48:40 01:54:37 21° 282° (WNW) 02:00:35 435.215
DX 1 27 Sep 01:55:40 02:00:00 87° 70° (ENE) 02:04:21 434.975-435.025
ISS 27 Sep 02:02:11 02:05:28 60° 32° (NNE) 02:08:42 437.550
QB50P2 27 Sep 02:03:10 02:06:48 27° 292° (WNW) 02:10:25 145.880/145.840
SPROUT 27 Sep 02:08:04 02:10:16 14° 269° (W) 02:12:28 437.525
MOZHAYETS 4 27 Sep 02:21:59 02:24:22 14° 62° (ENE) 02:26:46
BEESAT 27 Sep 02:23:24 02:26:13 16° 61° (ENE) 02:29:03 436.000
nSIGHT-1 27 Sep 02:34:19 02:37:32 62° 218° (SW) 02:40:45 .
NANOSAT C BR1 27 Sep 02:35:27 02:38:07 16° 296° (WNW) 02:40:46 145.865
M-CUBED/EXP-1 PRIME 27 Sep 02:44:04 02:47:13 45° 292° (WNW) 02:50:20 437.505
50 SAT 27 Sep 02:46:50 02:48:30 13° 267° (W) 02:50:09 437.505
O/OREOS (USA 219) 27 Sep 02:50:53 02:55:17 52° 296° (WNW) 02:59:45 437.305
Oscar 19 27 Sep 02:53:22 02:58:34 81° 104° (ESE) 03:03:41 437.125/150
AO-85 27 Sep 03:00:51 03:01:39 10° 35° (NE) 03:02:28 145.980
Gurwin Techsat 1B 27 Sep 03:08:33 03:13:53 76° 102° (ESE) 03:19:12 435.225
UKube-1 27 Sep 03:18:18 03:21:21 19° 266° (W) 03:24:25 .
BUGSAT 1 27 Sep 03:21:19 03:24:27 21° 294° (WNW) 03:27:36 437.445
RS-15 27 Sep 03:23:37 03:31:03 19° 97° (E) 03:38:29 29.354- 29.394
ITUPSAT 1 27 Sep 03:24:43 03:29:24 59° 73° (ENE) 03:34:08 437.325
BEESAT 3 27 Sep 03:33:18 03:37:01 36° 50° (NE) 03:40:40 437.485
ISS 27 Sep 03:39:26 03:41:37 17° 228° (SW) 03:43:48 437.550
BEESAT 2 27 Sep 03:50:03 03:53:07 20° 44° (NE) 03:56:09 435.950
MOZHAYETS 4 27 Sep 03:56:21 04:00:57 67° 258° (WSW) 04:05:35
BEESAT 27 Sep 03:58:46 04:03:28 62° 258° (WSW) 04:08:14 436.000
ITAMSAT 1 27 Sep 04:07:02 04:11:23 26° 95° (E) 04:15:43 435.822/435.867
AO-7 27 Sep 04:30:29 04:38:34 53° 102° (ESE) 04:46:36 .
CUBESAT XI-V 27 Sep 04:32:54 04:37:33 63° 74° (ENE) 04:42:12 437.345
Oscar 19 27 Sep 04:34:36 04:37:10 14° 301° (WNW) 04:39:44 437.125/150
AO-85 27 Sep 04:38:30 04:42:54 58° 54° (NE) 04:47:37 145.980
Gurwin Techsat 1B 27 Sep 04:50:08 04:53:11 16° 300° (WNW) 04:56:13 435.225
ITUPSAT 1 27 Sep 05:04:54 05:07:36 15° 269° (W) 05:10:20 437.325
BEESAT 3 27 Sep 05:11:22 05:14:20 21° 248° (WSW) 05:17:16 437.485
KKS-1 27 Sep 05:24:53 05:29:18 80° 74° (ENE) 05:33:43 437.445
BEESAT 2 27 Sep 05:27:11 05:31:04 45° 242° (WSW) 05:34:53 435.950
RS-15 27 Sep 05:29:12 05:41:24 76° 118° (ESE) 05:53:41 29.354- 29.394
STARS 27 Sep 05:38:16 05:42:25 44° 71° (ENE) 05:46:34 437.465
ITAMSAT 1 27 Sep 05:46:06 05:50:56 39° 292° (WNW) 05:55:45 435.822/435.867
DOVE 4 27 Sep 05:59:02 06:02:56 32° 97° (E) 06:07:01 437.250
CUBESAT XI-V 27 Sep 06:13:00 06:15:19 13° 270° (W) 06:17:37 437.345
XW-2C 27 Sep 06:15:06 06:16:08 11° 90° (E) 06:17:11 145.795 - 145.815
AO-85 27 Sep 06:20:01 06:22:58 17° 249° (WSW) 06:26:03 145.980
AO-7 27 Sep 06:23:40 06:31:03 37° 301° (WNW) 06:38:25 .
CUTE-I 27 Sep 06:24:03 06:27:14 16° 91° (E) 06:30:24 437.470
LilacSat-2 27 Sep 06:30:44 06:33:29 19° 93° (E) 06:36:12 437.200
KAITUO 1B 27 Sep 06:34:23 06:36:21 14° 92° (E) 06:38:18 145.475/437.950
XW-2D 27 Sep 07:12:45 07:16:31 59° 101° (E) 07:20:14 145.860 - 145.880
STARS 27 Sep 07:16:09 07:18:57 17° 267° (W) 07:21:47 437.465
XW-2F 27 Sep 07:21:55 07:25:42 71° 101° (ESE) 07:29:26 145.980 - 146.000
HO-68 27 Sep 07:23:56 07:29:36 24° 93° (E) 07:35:13 435.675
XW-2B 27 Sep 07:25:13 07:29:03 82° 104° (ESE) 07:32:49 145.730 - 145.750
NUDT-PHONESAT 27 Sep 07:31:45 07:35:28 70° 101° (E) 07:39:08 437.300
DOVE 4 27 Sep 07:37:05 07:40:29 23° 292° (WNW) 07:44:00 437.250
STRAND 1 27 Sep 07:38:07 07:43:10 67° 73° (ENE) 07:48:15 437.568
SEEDS 27 Sep 07:40:35 07:42:50 14° 91° (E) 07:45:03 437.485
RS-15 27 Sep 07:43:40 07:55:05 41° 323° (NW) 08:06:28 29.354- 29.394
XW-2C 27 Sep 07:46:55 07:50:38 51° 286° (WNW) 07:54:18 145.795 - 145.815
CUBEBUG 2 27 Sep 07:50:44 07:54:11 20° 92° (E) 07:57:37 437.445
UWE-3 27 Sep 07:51:04 07:52:14 11° 88° (E) 07:53:24 435.000/436.395/437.385
CUTE-I 27 Sep 08:02:26 08:07:44 67° 287° (WNW) 08:13:01 437.470
LilacSat-2 27 Sep 08:04:25 08:07:48 30° 289° (WNW) 08:11:08 437.200
KAITUO 1B 27 Sep 08:07:01 08:10:31 38° 288° (WNW) 08:13:59 145.475/437.950
CUTE 1.7 + AOD 2 27 Sep 08:15:02 08:19:13 57° 100° (E) 08:23:20 437.475
XW-2A 27 Sep 08:16:45 08:19:25 21° 95° (E) 08:22:03 145.665 - 145.685
AO-73 27 Sep 08:23:50 08:25:18 11° 88° (E) 08:26:45 145.935
ZACube-1 27 Sep 08:28:13 08:30:48 15° 90° (E) 08:33:23 437.345
XW-2D 27 Sep 08:49:17 08:50:10 11° 297° (WNW) 08:51:03 145.860 - 145.880
FO-29 27 Sep 09:00:25 09:05:41 47° 71° (ENE) 09:10:41 435.910
